Wind_Speed
13 13 14 14 14 14 14 13 13 13 12 13 13 12 12 12 11 10 8 7 5 4 4 3 3 2 1 1 1 1 1 1 2 2 3 3 4 5 5 4 4 4 4
12 14 14 15 15 15 15 15 14 14 14 14 14 14 13 13 12 11 10 8 7 5 5 4 3 2 2 2 2 2 2 1 1 2 2 3 4 4 4 4 4 4 4
14 15 15 15 16 16 16 16 16 15 15 15 15 15 15 14 13 13 11 10 8 7 6 5 4 3 3 3 3 2 2 2 2 2 2 3 3 3 3 4 4 4 4
15 16 17 16 16 17 17 17 16 16 15 15 15 16 16 16 15 14 13 11 10 8 7 6 5 4 3 3 3 3 3 3 2 2 2 2 3 3 3 3 4 4 4
17 17 16 16 17 18 18 17 17 17 16 16 16 16 16 17 16 16 14 13 11 10 9 7 6 5 4 4 4 4 4 3 3 2 2 2 2 3 3 3 4 4 4
17 17 17 16 17 18 19 18 17 17 17 17 17 17 17 18 17 17 15 14 13 11 10 9 8 6 6 6 6 5 5 5 4 3 2 3 3 3 4 4 4 5 4
17 17 17 17 17 18 18 18 17 18 18 17 18 18 18 19 18 18 17 16 14 13 12 10 9 8 7 7 7 7 6 6 5 4 4 4 4 5 5 5 6 6 6
17 16 17 17 17 19 20 19 18 19 19 19 19 18 19 19 19 19 18 17 16 14 13 12 10 9 9 8 8 8 7 7 6 5 5 5 5 6 6 7 7 7 7
17 16 16 17 17 18 20 20 19 19 20 20 20 20 20 20 20 20 20 19 17 16 15 13 12 11 10 10 9 9 8 8 8 6 6 6 7 7 7 7 7 8 8
17 18 18 18 18 19 19 19 19 19 20 21 21 21 22 22 21 21 21 20 19 18 16 15 14 13 12 11 11 10 10 10 9 8 8 8 8 8 9 9 9 10 10
18 18 19 20 19 19 19 19 19 20 20 21 21 22 23 23 22 22 22 22 21 19 18 17 16 15 14 13 12 12 12 11 10 10 9 9 9 10 10 11 11 11 12
19 19 20 20 20 20 20 20 21 21 21 22 22 23 24 24 23 23 23 23 22 21 20 19 17 16 15 15 14 14 14 13 11 11 10 11 11 12 12 13 13 13 14
22 21 22 21 21 22 22 22 22 21 22 22 22 24 25 25 25 25 25 24 23 22 21 20 19 18 17 16 16 16 16 15 13 13 13 13 13 13 14 14 14 15 15
26 23 23 22 22 22 22 23 23 22 23 24 23 24 24 25 26 25 26 25 24 23 22 22 21 20 19 18 18 18 17 17 16 15 16 15 16 16 15 15 15 15 15
27 25 24 23 23 24 24 24 24 23 23 25 25 24 25 26 26 26 26 25 24 24 23 23 22 22 20 19 19 19 19 19 18 17 17 17 17 17 17 17 17 16 17
30 28 25 25 25 25 25 24 24 24 24 25 25 26 24 25 26 26 26 25 25 24 24 25 24 23 22 21 21 21 20 21 21 20 19 19 19 19 19 18 18 18 19
32 29 27 27 26 26 26 26 24 25 25 24 24 25 25 24 24 25 26 26 25 25 27 27 26 25 24 23 23 23 23 23 23 22 21 21 21 21 21 21 21 21 21
31 31 31 29 28 27 28 28 26 25 26 25 24 24 23 24 25 26 25 26 26 26 27 28 27 26 26 25 25 26 25 25 24 23 23 23 23 23 24 24 24 23 24
33 32 32 32 30 29 29 29 29 28 28 27 25 24 25 25 25 26 26 27 27 27 29 29 28 28 27 27 27 27 27 25 25 26 25 25 25 25 25 26 27 27 27
34 34 34 34 33 32 32 30 30 28 27 27 25 25 26 26 25 24 24 25 27 28 29 30 30 29 29 30 29 28 28 28 27 27 27 27 27 27 27 28 29 29 30
34 35 35 35 34 33 33 32 30 29 28 27 27 26 26 25 24 24 24 25 27 29 30 29 29 29 29 29 28 28 29 28 28 28 29 29 30 30 30 30 31 32 32
34 35 36 36 35 34 34 33 32 30 29 27 26 27 27 26 26 26 27 27 28 30 32 31 30 29 29 29 29 28 29 30 29 29 31 32 32 33 33 33 34 34 34
34 35 37 36 35 34 33 32 32 31 30 29 28 29 29 28 28 27 27 27 28 29 30 31 31 31 31 31 31 30 30 30 31 31 32 33 35 35 36 36 36 36 36
33 34 35 35 34 34 33 33 33 32 31 30 29 29 28 28 28 28 28 28 28 29 30 31 31 31 32 33 32 32 32 32 33 33 34 35 36 36 37 36 36 37 38
31 32 34 34 33 33 32 33 32 32 32 31 30 29 29 28 29 28 29 30 29 29 31 31 31 32 32 32 32 33 34 35 35 35 35 36 36 37 38 38 38 39 40
28 30 31 31 31 32 32 33 33 32 31 31 30 30 28 29 29 28 29 29 29 29 30 31 32 33 33 33 33 33 34 34 34 35 35 35 35 36 37 38 39 41 42
Wind_Direction
258 253 246 241 234 224 220 220 219 219 222 224 226 229 232 232 233 235 239 243 247 249 253 253 250 251 275 289 304 324 338 360 12 15 14 15 16 18 21 20 17 12 5
261 255 250 243 236 229 225 226 224 224 225 228 231 234 236 238 241 242 244 247 249 251 254 253 249 252 270 275 281 293 309 325 340 352 1 7 7 12 15 13 9 5 2
265 259 253 247 241 234 231 229 228 229 228 230 234 237 240 243 246 248 249 250 252 253 255 255 251 255 265 271 270 276 286 291 298 322 346 350 353 1 4 5 3 1 358
270 260 254 251 245 240 236 232 231 231 233 234 239 241 244 247 250 251 252 253 254 255 257 258 253 253 260 264 263 266 269 275 280 295 312 321 337 349 355 357 357 355 351
269 264 258 255 248 243 237 237 235 233 235 238 240 243 247 249 251 252 253 254 255 255 257 258 255 254 254 255 258 259 259 258 255 257 282 301 316 332 340 346 347 345 343
267 268 260 255 248 244 241 240 239 239 241 243 244 246 249 252 252 252 253 253 255 255 256 256 256 255 253 250 252 253 253 251 248 241 258 279 300 317 323 329 332 332 334
263 264 261 252 248 245 243 243 243 244 245 247 248 249 251 253 253 253 253 252 253 254 255 254 254 253 253 250 249 249 250 249 251 256 255 267 292 309 315 318 322 323 322
262 259 256 254 253 249 245 245 244 244 246 250 251 252 254 255 255 254 252 252 252 253 253 253 252 251 251 251 249 250 252 253 257 260 263 271 286 299 308 311 314 313 314
261 260 257 257 257 257 251 247 247 248 250 252 253 254 255 256 255 254 252 251 252 252 252 252 251 250 250 251 250 252 255 257 260 263 266 274 282 290 299 303 307 307 307
260 256 256 257 257 257 251 248 249 251 252 253 254 255 256 255 255 253 252 251 251 251 252 252 251 251 251 252 251 252 255 257 259 262 262 273 280 286 291 294 296 298 297
262 262 259 254 257 257 255 253 255 255 255 255 255 255 255 255 254 252 251 250 250 251 251 252 251 252 252 252 251 253 255 256 257 261 263 273 280 284 289 291 292 294 295
259 260 255 257 258 258 257 256 256 257 257 256 256 257 256 255 253 252 251 250 250 251 252 253 253 252 252 252 252 254 257 258 264 264 264 272 278 282 286 289 290 291 293
254 255 254 253 259 258 257 257 257 257 258 258 257 259 258 256 253 252 250 249 248 249 250 251 252 252 252 252 252 254 257 260 258 264 269 274 277 281 284 286 288 290 292
254 253 254 253 257 256 258 257 255 256 256 258 260 259 258 254 252 251 250 249 247 248 249 250 251 252 253 253 253 255 257 261 263 264 270 273 276 280 282 285 287 289 290
254 256 256 255 255 256 260 257 256 257 259 258 258 259 259 258 254 251 249 247 249 248 247 249 251 253 254 253 253 255 259 263 266 265 267 271 274 277 279 281 284 286 287
255 257 260 259 257 261 262 258 258 260 262 262 261 258 260 261 255 251 248 246 249 248 248 249 250 252 254 254 254 255 258 262 265 265 267 270 273 275 278 280 282 283 285
251 255 261 261 260 261 263 263 264 265 268 268 265 262 262 262 260 254 249 248 249 250 248 249 250 251 252 253 254 256 258 262 265 267 268 269 271 274 277 279 280 282 283
250 254 258 261 259 260 264 265 266 266 267 270 271 270 268 264 261 256 252 249 250 250 248 249 250 250 251 251 253 256 259 262 264 266 268 269 270 273 275 277 279 281 282
252 254 256 257 258 260 263 264 265 265 268 270 268 272 273 268 262 258 257 253 250 249 249 250 249 252 252 252 253 256 258 260 262 266 269 271 273 273 274 276 279 280 281
252 253 254 255 257 259 260 263 265 266 267 269 270 274 274 269 266 262 259 252 251 250 252 251 251 253 253 254 255 257 259 260 261 266 270 272 274 274 275 277 279 280 281
252 252 253 254 255 256 260 263 266 266 268 270 272 274 271 269 265 264 261 260 256 254 252 252 253 254 255 255 257 259 258 258 261 265 268 271 274 275 276 277 278 281 283
253 253 253 254 255 257 258 262 267 267 271 272 270 271 271 268 269 269 267 261 255 253 252 253 255 256 257 256 257 258 259 259 262 264 268 271 274 276 278 280 281 282 282
254 253 253 254 256 258 259 262 264 268 271 272 270 270 270 269 270 269 266 261 257 255 254 255 257 255 254 255 257 259 260 261 265 267 270 273 274 276 277 279 280 282 284
256 255 253 253 255 257 259 261 265 269 271 273 273 274 272 270 272 268 264 262 257 254 255 255 256 254 253 256 258 259 259 262 266 268 270 272 275 276 278 279 281 284 285
255 256 254 254 254 256 258 258 262 266 270 272 273 274 273 271 272 267 263 261 258 256 254 253 253 254 256 257 257 259 262 264 265 268 269 271 273 275 278 280 282 283 285
254 253 252 253 253 255 257 259 262 264 268 268 270 272 271 270 271 267 263 262 259 257 256 255 257 258 258 258 259 262 263 265 267 269 271 272 273 275 277 279 282 284 286
Height
5882 5882 5883 5884 5885 5886 5887 5888 5889 5890 5891 5892 5893 5894 5894 5894 5895 5895 5895 5895 5895 5894 5894 5894 5894 5894 5893 5893 5893 5893 5893 5894 5894 5894 5894 5894 5894 5894 5894 5893 5893 5893 5893
5880 5880 5882 5883 5884 5885 5886 5887 5888 5889 5890 5891 5892 5893 5893 5894 5894 5894 5894 5894 5894 5894 5894 5893 5893 5893 5893 5893 5893 5893 5893 5893 5893 5894 5894 5894 5894 5894 5893 5893 5893 5893 5893
5879 5879 5880 5881 5882 5883 5884 5885 5886 5887 5888 5889 5890 5891 5892 5892 5893 5893 5893 5893 5893 5893 5893 5893 5893 5893 5893 5893 5893 5892 5893 5893 5893 5893 5893 5893 5893 5893 5893 5893 5893 5893 5893
5877 5877 5878 5879 5880 5881 5882 5883 5884 5885 5886 5887 5888 5889 5890 5891 5891 5892 5892 5892 5892 5892 5892 5892 5892 5892 5892 5892 5892 5892 5892 5892 5893 5893 5893 5893 5893 5893 5893 5893 5893 5893 5893
5875 5875 5876 5877 5878 5879 5880 5881 5882 5883 5884 5885 5886 5887 5888 5889 5889 5890 5890 5890 5890 5891 5891 5891 5891 5891 5891 5892 5892 5891 5892 5892 5892 5892 5893 5893 5892 5893 5893 5892 5892 5892 5892
5873 5873 5873 5874 5876 5877 5878 5878 5880 5881 5882 5883 5884 5885 5886 5887 5887 5888 5888 5888 5889 5889 5889 5890 5890 5890 5890 5891 5891 5891 5891 5891 5892 5892 5893 5892 5892 5892 5892 5892 5892 5892 5892
5871 5871 5871 5872 5873 5874 5875 5876 5877 5878 5879 5880 5881 5882 5883 5884 5885 5885 5886 5886 5887 5887 5887 5888 5889 5889 5889 5889 5890 5890 5890 5890 5891 5892 5892 5892 5892 5892 5892 5891 5891 5891 5891
5868 5869 5869 5869 5870 5871 5872 5873 5874 5875 5876 5878 5879 5879 5880 5881 5882 5883 5883 5884 5884 5885 5885 5886 5887 5887 5888 5888 5888 5889 5889 5889 5890 5890 5891 5891 5891 5891 5891 5891 5891 5891 5891
5866 5866 5866 5867 5867 5868 5869 5870 5871 5873 5874 5875 5876 5877 5878 5879 5879 5880 5881 5881 5882 5882 5883 5884 5885 5886 5886 5886 5887 5887 5887 5888 5888 5889 5889 5889 5890 5890 5890 5890 5890 5890 5890
5861 5863 5863 5864 5864 5865 5866 5867 5868 5869 5870 5871 5872 5873 5874 5875 5876 5877 5878 5878 5879 5880 5880 5881 5882 5883 5884 5884 5885 5885 5885 5886 5887 5888 5888 5888 5888 5888 5889 5889 5888 5888 5888
5858 5860 5860 5860 5861 5862 5863 5864 5865 5866 5867 5868 5869 5870 5871 5872 5873 5873 5874 5875 5876 5877 5878 5879 5880 5881 5882 5882 5882 5883 5883 5884 5884 5885 5885 5886 5886 5887 5887 5887 5887 5887 5886
5853 5855 5856 5857 5857 5858 5860 5861 5862 5863 5864 5864 5865 5866 5867 5868 5869 5870 5871 5872 5872 5874 5875 5876 5877 5878 5879 5880 5880 5880 5881 5881 5882 5882 5882 5884 5884 5884 5884 5884 5884 5884 5884
5847 5849 5850 5851 5853 5854 5856 5857 5858 5859 5860 5860 5861 5862 5863 5864 5865 5866 5867 5868 5869 5870 5871 5872 5874 5875 5876 5877 5877 5878 5878 5879 5880 5881 5880 5880 5881 5881 5882 5882 5881 5881 5881
5844 5844 5846 5846 5849 5850 5851 5851 5853 5854 5855 5856 5856 5857 5858 5859 5860 5862 5863 5863 5864 5866 5867 5868 5870 5871 5872 5873 5874 5875 5875 5875 5877 5878 5877 5877 5878 5879 5879 5879 5878 5878 5878
5837 5839 5839 5840 5842 5844 5846 5845 5847 5849 5850 5851 5851 5852 5853 5854 5855 5857 5858 5858 5860 5862 5863 5864 5866 5867 5869 5870 5871 5872 5872 5873 5873 5875 5875 5875 5875 5875 5875 5875 5875 5875 5874
5835 5835 5836 5836 5837 5838 5839 5840 5841 5844 5845 5846 5847 5847 5847 5848 5850 5851 5852 5854 5855 5857 5858 5859 5861 5863 5865 5866 5867 5868 5869 5869 5870 5870 5871 5871 5871 5871 5872 5872 5871 5871 5871
5831 5831 5833 5831 5832 5834 5835 5835 5837 5839 5840 5841 5842 5841 5842 5843 5845 5846 5848 5849 5850 5852 5853 5854 5856 5859 5860 5861 5863 5863 5864 5865 5865 5866 5867 5868 5867 5867 5867 5867 5867 5867 5867
5825 5827 5829 5828 5828 5829 5831 5832 5833 5835 5836 5835 5836 5836 5836 5838 5840 5841 5842 5843 5845 5847 5848 5849 5851 5853 5855 5856 5858 5859 5860 5861 5861 5860 5861 5863 5863 5863 5863 5863 5863 5863 5862
5821 5822 5823 5823 5822 5822 5826 5827 5828 5830 5830 5830 5830 5831 5832 5833 5834 5835 5836 5838 5840 5841 5843 5845 5847 5848 5850 5851 5853 5853 5855 5856 5856 5856 5856 5857 5857 5858 5857 5857 5857 5857 5857
5815 5816 5816 5817 5818 5819 5821 5821 5822 5824 5824 5824 5824 5826 5827 5827 5828 5829 5830 5831 5834 5836 5838 5839 5841 5843 5844 5846 5847 5848 5849 5850 5851 5851 5851 5851 5851 5852 5852 5851 5851 5850 5850
5808 5809 5810 5810 5812 5813 5815 5816 5816 5816 5817 5818 5819 5820 5822 5822 5822 5824 5825 5826 5828 5830 5832 5834 5835 5837 5838 5840 5841 5842 5843 5844 5845 5845 5845 5845 5845 5845 5845 5845 5844 5843 5843
5801 5802 5803 5804 5805 5807 5808 5810 5811 5811 5811 5812 5814 5815 5816 5817 5817 5818 5819 5820 5822 5824 5825 5827 5829 5831 5832 5833 5835 5836 5837 5838 5838 5839 5839 5839 5839 5839 5839 5837 5837 5836 5836
5794 5796 5797 5798 5799 5800 5802 5803 5804 5805 5806 5807 5808 5810 5811 5811 5812 5812 5813 5814 5815 5817 5819 5821 5823 5824 5826 5828 5829 5830 5831 5832 5832 5832 5832 5832 5832 5832 5831 5830 5829 5828 5828
5787 5788 5790 5791 5793 5794 5796 5797 5798 5799 5800 5800 5801 5802 5803 5804 5805 5806 5808 5808 5810 5811 5813 5815 5816 5817 5819 5821 5822 5823 5824 5825 5825 5825 5826 5825 5825 5824 5824 5823 5822 5820 5819
5781 5782 5783 5785 5786 5788 5790 5791 5793 5793 5794 5795 5795 5796 5797 5798 5799 5800 5801 5802 5803 5804 5806 5807 5809 5811 5812 5813 5814 5816 5816 5817 5817 5817 5817 5818 5817 5817 5816 5814 5814 5813 5811
5774 5775 5777 5778 5780 5782 5783 5785 5787 5787 5788 5789 5789 5790 5790 5791 5792 5793 5794 5795 5796 5797 5799 5800 5802 5803 5805 5806 5807 5808 5809 5809 5809 5809 5809 5809 5809 5808 5807 5806 5805 5804 5802